Espaço - Ciências - Fenômenos Naturais
Meteógrafos Informações Meteorológicas em tempo real

Aeroporto de Congonhas

Histórico do Tempo
Temperatura atual: 16 graus 60 F    Umidade relativa: 87 %
Velocidade do vento: 07 nós 12 Km/h    Direção: 160 graus SSE
Ajuste do altímetro ..: 1021 HPA
Visibilidade: Regular    Tempo presente: Névoa úmida

Observação
Céu encoberto a400 Pés.

Data Hora BRTTempo°CUmidadePressãoVentoVisib.
21/09 - 07:56   Névoa úmida 16° 87% 1021 Sul-sudeste/12 km/h 5000
21/09 - 06:56   Céu Encoberto 16° 87% 1021 Sul/10 km/h OK
21/09 - 05:56   Céu Encoberto 16° 87% 1021 Sul/10 km/h OK
21/09 - 04:56   Choveu há pouco 16° 87% 1019 Sul/12 km/h OK
21/09 - 03:56   Parcialmente Nublado 16° 87% 1020 Sul-sudoeste/9 km/h 9999
21/09 - 02:56   Céu Encoberto 16° 87% 1019 Sul/19 km/h OK
21/09 - 01:56   Poucas nuvens esparsas 16° 87% 1020 Sul-sudoeste/18 km/h OK
21/09 - 00:56   Poucas nuvens esparsas 16° 93% 1020 Sul/14 km/h 6000
20/09 - 23:56   Céu Encoberto 17° 88% 1020 Sul/18 km/h OK
20/09 - 22:56   Céu Encoberto 17° 88% 1020 Sul/18 km/h OK
20/09 - 21:56   Muitas Nuvens 18° 93% 1020 Sul/21 km/h OK
20/09 - 20:56   Chuvisco fraco 20° 88% 1019 Sul/21 km/h 5000
20/09 - 19:56   Parcialmente Nublado 21° 77% 1017 Sul-sudeste/18 km/h OK
20/09 - 18:56   Céu Limpo 23° 64% 1017 Sudoeste/5 km/h OK
20/09 - 17:56   Céu Limpo 23° 60% 1017 Oeste/9 km/h OK
20/09 - 16:56   Céu Limpo 26° 50% 1017 Oeste-noroeste/14 km/h OK
20/09 - 15:56   Quase sem nuvens 26° 57% 1016 Oeste/5 km/h 8000
20/09 - 14:56   Quase sem nuvens 26° 57% 1016 Oeste/5 km/h 8000
20/09 - 13:56   Céu Limpo 27° 54% 1017 Oeste-noroeste/12 km/h OK
20/09 - 12:56   Céu Limpo 27° 54% 1017 Oeste-noroeste/12 km/h OK
20/09 - 11:56   Céu Limpo 27° 51% 1016 Nordeste/14 km/h OK
20/09 - 10:56   Céu Limpo 23° 69% 1016 Este-nordeste/16 km/h OK
20/09 - 09:56   Céu Limpo 23° 69% 1016 Este-nordeste/16 km/h OK
20/09 - 08:56   Quase sem nuvens 21° 77% 1017 Este-nordeste/10 km/h 8000


Apolo11.com - Todos os direitos reservados - 2000 - 2019
Política de Privacidade   |     Termo de Uso e Licenciamento   |  -   Entre em Contato

"Nada contribui mais para a paz de espírito, como não ter opinião sobre coisa alguma" - Georg Lichtenberg